Stündliche Wetter Abdi

Heute, 24 Juni, Donnerstag

Zeit Temperatur Niederschläge Wind Luftdruck Luftfeuchtigkeit
00:00 +21°C° 0 mm 1 m/S 750 mmHg 86%
01:00 +21°C° 0 mm 1 m/S 750 mmHg 87%
02:00 +20°C° 0 mm 1 m/S 750 mmHg 88%
03:00 +19°C° 0 mm 2 m/S 750 mmHg 90%
04:00 +20°C° 0 mm 2 m/S 751 mmHg 87%
05:00 +21°C° 0 mm 2 m/S 751 mmHg 85%
06:00 +23°C° 0 mm 2 m/S 751 mmHg 82%
07:00 +24°C° 0 mm 2 m/S 751 mmHg 77%
08:00 +25°C° 0 mm 2 m/S 751 mmHg 72%
09:00 +27°C° 0 mm 2 m/S 751 mmHg 67%
10:00 +28°C° 0 mm 2 m/S 751 mmHg 63%
11:00 +28°C° 0 mm 2 m/S 751 mmHg 60%
12:00 +29°C° 0 mm 1 m/S 751 mmHg 57%
13:00 +30°C° 0 mm 1 m/S 751 mmHg 56%
14:00 +30°C° 0 mm 1 m/S 751 mmHg 55%
15:00 +30°C° 0 mm 1 m/S 750 mmHg 54%
16:00 +30°C° 0 mm 1 m/S 750 mmHg 58%
17:00 +30°C° 0 mm 2 m/S 750 mmHg 63%
18:00 +29°C° 0 mm 2 m/S 749 mmHg 68%
19:00 +27°C° 0 mm 2 m/S 749 mmHg 71%
20:00 +26°C° 0 mm 3 m/S 749 mmHg 75%
21:00 +24°C° 0 mm 3 m/S 749 mmHg 79%
22:00 +22°C° 0.1 mm 3 m/S 749 mmHg 80%
23:00 +22°C° 0.1 mm 3 m/S 748 mmHg 82%

Morgen, 25 Juni, Freitag

Zeit Temperatur Niederschläge Wind Luftdruck Luftfeuchtigkeit
00:00 +21°C° 0.1 mm 3 m/S 748 mmHg 83%
01:00 +21°C° 0 mm 3 m/S 748 mmHg 85%
02:00 +20°C° 0 mm 3 m/S 748 mmHg 87%
03:00 +20°C° 0 mm 3 m/S 748 mmHg 89%
04:00 +23°C° 0.1 mm 2 m/S 748 mmHg 86%
05:00 +24°C° 0.1 mm 2 m/S 748 mmHg 83%
06:00 +25°C° 0.1 mm 2 m/S 748 mmHg 81%
07:00 +27°C° 0 mm 3 m/S 747 mmHg 74%
08:00 +29°C° 0 mm 3 m/S 747 mmHg 68%
09:00 +30°C° 0 mm 3 m/S 747 mmHg 62%
10:00 +32°C° 0 mm 4 m/S 747 mmHg 57%
11:00 +33°C° 0 mm 4 m/S 747 mmHg 51%
12:00 +34°C° 0 mm 4 m/S 747 mmHg 46%
13:00 +35°C° 0 mm 4 m/S 747 mmHg 47%
14:00 +35°C° 0 mm 4 m/S 747 mmHg 47%
15:00 +35°C° 0 mm 4 m/S 747 mmHg 47%
16:00 +34°C° 0 mm 4 m/S 746 mmHg 53%
17:00 +33°C° 0 mm 3 m/S 745 mmHg 59%
18:00 +31°C° 0 mm 3 m/S 745 mmHg 65%
19:00 +28°C° 0 mm 2 m/S 745 mmHg 68%
20:00 +26°C° 0 mm 2 m/S 746 mmHg 72%
21:00 +24°C° 0 mm 2 m/S 746 mmHg 75%
22:00 +23°C° 0.2 mm 2 m/S 746 mmHg 78%
23:00 +21°C° 0.2 mm 2 m/S 746 mmHg 81%

übermorgen, 26 Juni, Samstag

Zeit Temperatur Niederschläge Wind Luftdruck Luftfeuchtigkeit
00:00 +20°C° 0.2 mm 2 m/S 746 mmHg 85%
01:00 +19°C° 0 mm 2 m/S 746 mmHg 87%
02:00 +19°C° 0 mm 2 m/S 746 mmHg 89%
03:00 +18°C° 0 mm 2 m/S 746 mmHg 91%
04:00 +19°C° 0 mm 2 m/S 746 mmHg 87%
05:00 +21°C° 0 mm 2 m/S 746 mmHg 84%
06:00 +23°C° 0 mm 2 m/S 746 mmHg 80%
07:00 +25°C° 0 mm 3 m/S 746 mmHg 74%
08:00 +26°C° 0 mm 3 m/S 746 mmHg 68%
09:00 +28°C° 0 mm 3 m/S 746 mmHg 62%
10:00 +29°C° 0 mm 3 m/S 746 mmHg 59%
11:00 +30°C° 0 mm 3 m/S 746 mmHg 57%
12:00 +31°C° 0 mm 3 m/S 746 mmHg 54%
13:00 +32°C° 0 mm 4 m/S 745 mmHg 53%
14:00 +33°C° 0 mm 4 m/S 745 mmHg 52%
15:00 +33°C° 0 mm 4 m/S 745 mmHg 50%
16:00 +31°C° 0 mm 3 m/S 745 mmHg 56%
17:00 +30°C° 0 mm 3 m/S 745 mmHg 62%
18:00 +29°C° 0 mm 2 m/S 745 mmHg 68%
19:00 +28°C° 0.7 mm 2 m/S 745 mmHg 74%
20:00 +26°C° 0.7 mm 2 m/S 745 mmHg 80%
21:00 +24°C° 0.7 mm 2 m/S 745 mmHg 86%
22:00 +22°C° 1.1 mm 3 m/S 745 mmHg 89%
23:00 +21°C° 1.1 mm 3 m/S 745 mmHg 91%

27 Juni, Sonntag

Zeit Temperatur Niederschläge Wind Luftdruck Luftfeuchtigkeit
00:00 +21°C° 1.1 mm 3 m/S 745 mmHg 94%
01:00 +20°C° 0 mm 3 m/S 745 mmHg 94%
02:00 +20°C° 0 mm 3 m/S 745 mmHg 93%
03:00 +20°C° 0 mm 2 m/S 745 mmHg 93%
04:00 +21°C° 0 mm 2 m/S 745 mmHg 90%
05:00 +23°C° 0 mm 2 m/S 746 mmHg 87%
06:00 +24°C° 0 mm 1 m/S 746 mmHg 84%
07:00 +26°C° 0 mm 2 m/S 746 mmHg 78%
08:00 +27°C° 0 mm 2 m/S 746 mmHg 73%
09:00 +28°C° 0 mm 2 m/S 746 mmHg 67%
10:00 +29°C° 0 mm 2 m/S 746 mmHg 62%
11:00 +30°C° 0 mm 2 m/S 746 mmHg 57%
12:00 +31°C° 0 mm 2 m/S 746 mmHg 52%
13:00 +31°C° 0 mm 3 m/S 746 mmHg 51%
14:00 +31°C° 0 mm 3 m/S 746 mmHg 50%
15:00 +33°C° 0 mm 4 m/S 746 mmHg 48%
16:00 +31°C° 0 mm 3 m/S 746 mmHg 54%
17:00 +30°C° 0 mm 3 m/S 746 mmHg 60%
18:00 +29°C° 0 mm 2 m/S 746 mmHg 66%
19:00 +27°C° 0 mm 2 m/S 746 mmHg 69%
20:00 +26°C° 0 mm 2 m/S 746 mmHg 73%
21:00 +24°C° 0 mm 2 m/S 746 mmHg 76%
22:00 +23°C° 0 mm 2 m/S 746 mmHg 80%
23:00 +23°C° 0 mm 2 m/S 746 mmHg 84%

28 Juni, Montag

Zeit Temperatur Niederschläge Wind Luftdruck Luftfeuchtigkeit
00:00 +21°C° 0 mm 2 m/S 746 mmHg 87%
01:00 +21°C° 0 mm 2 m/S 746 mmHg 88%
02:00 +20°C° 0 mm 2 m/S 747 mmHg 89%
03:00 +20°C° 0 mm 2 m/S 747 mmHg 90%
04:00 +21°C° 0 mm 3 m/S 747 mmHg 85%
05:00 +22°C° 0 mm 3 m/S 747 mmHg 80%
06:00 +24°C° 0 mm 3 m/S 747 mmHg 75%
07:00 +25°C° 0 mm 3 m/S 747 mmHg 71%
08:00 +26°C° 0 mm 3 m/S 747 mmHg 66%
09:00 +28°C° 0 mm 4 m/S 747 mmHg 61%
10:00 +28°C° 0 mm 3 m/S 747 mmHg 59%
11:00 +29°C° 0 mm 3 m/S 747 mmHg 57%
12:00 +30°C° 0 mm 3 m/S 747 mmHg 55%
13:00 +30°C° 0 mm 3 m/S 747 mmHg 54%
14:00 +30°C° 0 mm 3 m/S 747 mmHg 54%
15:00 +30°C° 0 mm 3 m/S 747 mmHg 53%
16:00 +30°C° 0.1 mm 3 m/S 747 mmHg 58%
17:00 +29°C° 0.1 mm 3 m/S 747 mmHg 64%
18:00 +28°C° 0.1 mm 3 m/S 747 mmHg 69%
19:00 +27°C° 0 mm 3 m/S 747 mmHg 71%
20:00 +25°C° 0 mm 3 m/S 747 mmHg 73%
21:00 +24°C° 0 mm 3 m/S 747 mmHg 75%
22:00 +22°C° 0 mm 3 m/S 747 mmHg 75%
23:00 +22°C° 0 mm 3 m/S 747 mmHg 75%

29 Juni, Dienstag

Zeit Temperatur Niederschläge Wind Luftdruck Luftfeuchtigkeit
00:00 +21°C° 0 mm 3 m/S 747 mmHg 75%
01:00 +21°C° 0 mm 3 m/S 747 mmHg 77%
02:00 +20°C° 0 mm 3 m/S 747 mmHg 78%
03:00 +20°C° 0 mm 2 m/S 747 mmHg 80%
04:00 +21°C° 0 mm 3 m/S 747 mmHg 78%
05:00 +22°C° 0 mm 3 m/S 747 mmHg 75%
06:00 +24°C° 0 mm 3 m/S 747 mmHg 73%
07:00 +25°C° 0 mm 3 m/S 747 mmHg 68%
08:00 +26°C° 0 mm 4 m/S 747 mmHg 63%
09:00 +28°C° 0 mm 4 m/S 747 mmHg 58%
10:00 +28°C° 0 mm 4 m/S 747 mmHg 56%
11:00 +29°C° 0 mm 4 m/S 747 mmHg 54%
12:00 +30°C° 0 mm 3 m/S 747 mmHg 52%
13:00 +30°C° 0 mm 3 m/S 746 mmHg 52%
14:00 +30°C° 0 mm 3 m/S 746 mmHg 52%
15:00 +31°C° 0 mm 3 m/S 746 mmHg 51%
16:00 +30°C° 0 mm 3 m/S 746 mmHg 56%
17:00 +29°C° 0 mm 3 m/S 745 mmHg 60%
18:00 +29°C° 0 mm 3 m/S 745 mmHg 64%
19:00 +27°C° 0 mm 3 m/S 745 mmHg 66%
20:00 +26°C° 0 mm 2 m/S 745 mmHg 68%
21:00 +24°C° 0 mm 2 m/S 745 mmHg 70%
22:00 +24°C° 0 mm 2 m/S 745 mmHg 71%
23:00 +23°C° 0 mm 2 m/S 744 mmHg 72%
Mehr zeigen

Wir brauchen deine Erlaubnis

Meteoprog und unser Service Anbieter werden persönliche Daten aufbewahren, so wie Cookies, Geräte Bezeichnung oder ähnliche Technologien von deinem Gerät und Prozess, so wie Persönliche Daten Inhalte und Werbungen, genauso wie social Media und den Verkehr zu analysieren.

  • Aufbewahrung und/oder Zugang zu deiner Geräte Informationen.

    Cookies, Geräte Bezeichnung oder andere Informationen, können aufbewahrt oder Zugang zu deinem Gerät erhalten, für den Grund, der oben angegeben wird.

  • Personalisierte Werbung und Inhalte, Messungen, Einblick in das Publikum und Produkt Entwicklung.

    Werbungen und Inhalte können personalisiert werden, basierend auf ein Profil. Mehr Daten können besser personalisierte Werbungen und Inhalte hinzufügen. Werbung und Inhalte können gezeigt und gemessen werden. Einblicke über das Publikum, welche die Werbung gesehen haben und den Inhalt, können abgeleitet werden. So wie Daten können genutzt werden, um es zu verbessern oder die Benutzer Erfahrung zu verbessern das System und die Software.

Wenn du “Ich stimme zu” klickst, erlaubst du uns, die Cookies zu benutzen die Geräte Bezeichnung, den Web oder ähnliche Technologien zu benutzen. Deine Settings, können in deinem Gerät bei deinem Browser geändert werden.

Für den bestimmten Zweck, berechtigten Interessen beruhen darauf, mehr als auf den Inhalt. Du kannst mehr darüber in unseren Privaten und Cookie Politik lesen.